GBEMC EGHQ-EGHH

Flight info

Callsign GBEMC
Flight time 1h 20m
Altitude 2500
Route EGHQ EGHD EGHH
Aircraft C172/L-DOV/C

Departure

Time 2026-05-05 18:09
Airport Cornwall Airport Newquay (EGHQ)

Arrival

Time 2026-05-05 19:30
Airport Bournemouth Airport (EGHH)
Time Latitude Longitude Altitude Speed Heading
2026-05-05 17:50 50.43735 -4.99615 342 ft 0 kts 247°
2026-05-05 18:00 50.43734 -4.99619 342 ft 2 kts 244°
2026-05-05 18:00 50.43737 -4.99640 341 ft 0 kts 341°
2026-05-05 18:00 50.43745 -4.99638 342 ft 2 kts 34°
2026-05-05 18:00 50.43769 -4.99595 349 ft 11 kts 50°
2026-05-05 18:01 50.43823 -4.99519 363 ft 9 kts 17°
2026-05-05 18:01 50.43882 -4.99514 370 ft 3 kts
2026-05-05 18:01 50.43885 -4.99514 370 ft 0 kts
2026-05-05 18:03 50.43907 -4.99512 369 ft 9 kts
2026-05-05 18:04 50.43942 -4.99509 369 ft 0 kts
2026-05-05 18:08 50.44032 -4.99508 369 ft 21 kts 358°
2026-05-05 18:08 50.44132 -4.99686 370 ft 40 kts 301°
2026-05-05 18:08 50.44323 -5.00204 467 ft 58 kts 299°
2026-05-05 18:09 50.44508 -5.00779 630 ft 61 kts 297°
2026-05-05 18:09 50.44732 -5.01436 752 ft 72 kts 301°
2026-05-05 18:09 50.45132 -5.01884 923 ft 78 kts 346°
2026-05-05 18:09 50.45661 -5.01739 1116 ft 84 kts 19°
2026-05-05 18:10 50.46081 -5.01035 1289 ft 91 kts 59°
2026-05-05 18:10 50.46143 -4.99992 1360 ft 103 kts 95°
2026-05-05 18:10 50.45911 -4.98957 1508 ft 100 kts 112°
2026-05-05 18:10 50.45587 -4.97952 1552 ft 105 kts 115°
2026-05-05 18:11 50.45235 -4.96908 1574 ft 110 kts 115°
2026-05-05 18:11 50.44849 -4.95841 1551 ft 114 kts 118°
2026-05-05 18:11 50.44465 -4.94756 1589 ft 112 kts 118°
2026-05-05 18:11 50.44067 -4.93681 1569 ft 114 kts 118°
2026-05-05 18:12 50.43666 -4.92622 1563 ft 114 kts 121°
2026-05-05 18:12 50.43281 -4.91520 1563 ft 114 kts 111°
2026-05-05 18:12 50.43048 -4.90329 1571 ft 113 kts 99°
2026-05-05 18:12 50.42871 -4.89138 1592 ft 113 kts 101°
2026-05-05 18:13 50.42665 -4.87942 1583 ft 113 kts 101°
2026-05-05 18:13 50.42524 -4.86736 1578 ft 113 kts 95°
2026-05-05 18:13 50.42385 -4.85527 1570 ft 112 kts 96°
2026-05-05 18:13 50.42276 -4.84307 1544 ft 113 kts 90°
2026-05-05 18:14 50.42233 -4.83078 1552 ft 112 kts 88°
2026-05-05 18:14 50.42221 -4.81860 1545 ft 111 kts 85°
2026-05-05 18:14 50.42216 -4.80652 1533 ft 112 kts 86°
2026-05-05 18:14 50.42220 -4.79429 1525 ft 111 kts 83°
2026-05-05 18:15 50.42242 -4.78225 1519 ft 112 kts 86°
2026-05-05 18:15 50.42212 -4.76999 1517 ft 112 kts 89°
2026-05-05 18:15 50.42128 -4.75789 1503 ft 113 kts 96°
2026-05-05 18:15 50.42011 -4.74567 1499 ft 112 kts 91°
2026-05-05 18:16 50.41923 -4.73359 1490 ft 113 kts 93°
2026-05-05 18:16 50.41809 -4.72133 1496 ft 112 kts 93°
2026-05-05 18:16 50.41730 -4.70927 1492 ft 112 kts 91°
2026-05-05 18:16 50.41634 -4.69698 1496 ft 112 kts 94°
2026-05-05 18:17 50.41528 -4.68495 1503 ft 112 kts 93°
2026-05-05 18:17 50.41443 -4.67273 1476 ft 112 kts 90°
2026-05-05 18:17 50.41388 -4.66061 1470 ft 112 kts 89°
2026-05-05 18:17 50.41323 -4.64837 1466 ft 112 kts 91°
2026-05-05 18:18 50.41253 -4.63625 1468 ft 112 kts 90°
2026-05-05 18:18 50.41180 -4.62406 1466 ft 112 kts 92°
2026-05-05 18:18 50.41074 -4.61197 1461 ft 112 kts 92°
2026-05-05 18:18 50.41012 -4.59976 1465 ft 112 kts 89°
2026-05-05 18:19 50.40951 -4.58769 1479 ft 112 kts 90°
2026-05-05 18:19 50.40869 -4.57545 1491 ft 112 kts 92°
2026-05-05 18:19 50.40764 -4.56331 1490 ft 113 kts 95°
2026-05-05 18:19 50.40603 -4.55132 1527 ft 112 kts 98°
2026-05-05 18:20 50.40435 -4.53927 1510 ft 113 kts 98°
2026-05-05 18:20 50.40271 -4.52729 1498 ft 112 kts 98°
2026-05-05 18:20 50.40115 -4.51516 1484 ft 113 kts 98°
2026-05-05 18:20 50.39931 -4.50324 1470 ft 114 kts 98°
2026-05-05 18:21 50.39782 -4.49108 1483 ft 113 kts 98°
2026-05-05 18:21 50.39599 -4.47920 1479 ft 113 kts 100°
2026-05-05 18:21 50.39425 -4.46716 1458 ft 113 kts 98°
2026-05-05 18:21 50.39239 -4.45507 1458 ft 113 kts 100°
2026-05-05 18:22 50.39061 -4.44327 1448 ft 112 kts 97°
2026-05-05 18:22 50.38927 -4.43099 1422 ft 113 kts 96°
2026-05-05 18:22 50.38756 -4.41915 1417 ft 113 kts 101°
2026-05-05 18:22 50.38549 -4.40718 1399 ft 114 kts 101°
2026-05-05 18:23 50.38364 -4.39517 1425 ft 112 kts 98°
2026-05-05 18:23 50.38224 -4.38323 1414 ft 114 kts 95°
2026-05-05 18:23 50.38112 -4.37109 1458 ft 111 kts 92°
2026-05-05 18:23 50.38050 -4.35912 1455 ft 112 kts 86°
2026-05-05 18:24 50.38009 -4.34686 1473 ft 112 kts 89°
2026-05-05 18:24 50.37984 -4.33471 1486 ft 111 kts 86°
2026-05-05 18:24 50.37966 -4.32248 1478 ft 112 kts 90°
2026-05-05 18:24 50.37882 -4.31040 1465 ft 112 kts 93°
2026-05-05 18:25 50.37815 -4.29818 1463 ft 112 kts 88°
2026-05-05 18:25 50.37809 -4.29003 1482 ft 111 kts 86°
2026-05-05 18:25 50.37790 -4.27398 1483 ft 111 kts 81°
2026-05-05 18:25 50.37981 -4.26234 1468 ft 109 kts 63°
2026-05-05 18:26 50.38272 -4.25160 1491 ft 106 kts 59°
2026-05-05 18:26 50.38576 -4.24108 1482 ft 108 kts 59°
2026-05-05 18:26 50.38887 -4.23050 1500 ft 107 kts 58°
2026-05-05 18:26 50.39208 -4.22000 1507 ft 107 kts 58°
2026-05-05 18:27 50.39526 -4.20947 1517 ft 107 kts 58°
2026-05-05 18:27 50.39850 -4.19889 1546 ft 109 kts 58°
2026-05-05 18:27 50.40162 -4.18831 1713 ft 104 kts 57°
2026-05-05 18:27 50.40489 -4.17792 1786 ft 108 kts 57°
2026-05-05 18:28 50.41114 -4.15688 1990 ft 108 kts 62°
2026-05-05 18:28 50.41381 -4.14609 2023 ft 108 kts 63°
2026-05-05 18:28 50.41630 -4.13486 2018 ft 109 kts 65°
2026-05-05 18:29 50.41865 -4.12362 2039 ft 109 kts 66°
2026-05-05 18:29 50.42110 -4.11241 2028 ft 109 kts 64°
2026-05-05 18:29 50.42329 -4.10096 2024 ft 111 kts 75°
2026-05-05 18:29 50.42434 -4.08894 2037 ft 110 kts 76°
2026-05-05 18:30 50.42585 -4.07718 2032 ft 110 kts 70°
2026-05-05 18:30 50.42768 -4.06549 2030 ft 110 kts 71°
2026-05-05 18:30 50.42938 -4.05389 2038 ft 110 kts 70°
2026-05-05 18:30 50.43118 -4.04210 2128 ft 108 kts 71°
2026-05-05 18:31 50.43275 -4.03062 2181 ft 111 kts 73°
2026-05-05 18:31 50.43420 -4.01875 2258 ft 109 kts 72°
2026-05-05 18:31 50.43563 -4.00712 2304 ft 111 kts 75°
2026-05-05 18:31 50.43657 -3.99497 2379 ft 110 kts 80°
2026-05-05 18:32 50.43774 -3.98304 2422 ft 111 kts 75°
2026-05-05 18:32 50.43823 -3.97643 2446 ft 110 kts 80°
2026-05-05 18:32 50.43833 -3.97413 2445 ft 111 kts 81°
2026-05-05 18:32 50.43938 -3.96199 2409 ft 111 kts 73°
2026-05-05 18:33 50.44114 -3.95040 2402 ft 110 kts 68°
2026-05-05 18:33 50.44338 -3.93881 2403 ft 109 kts 66°
2026-05-05 18:33 50.44523 -3.92723 2421 ft 109 kts 72°
2026-05-05 18:33 50.44679 -3.91566 2453 ft 107 kts 71°
2026-05-05 18:34 50.44836 -3.90435 2503 ft 105 kts 71°
2026-05-05 18:34 50.44996 -3.89295 2501 ft 108 kts 71°
2026-05-05 18:34 50.45160 -3.88124 2495 ft 109 kts 71°
2026-05-05 18:34 50.45323 -3.86965 2495 ft 109 kts 71°
2026-05-05 18:35 50.45488 -3.85792 2485 ft 109 kts 71°
2026-05-05 18:35 50.45650 -3.84641 2496 ft 109 kts 71°
2026-05-05 18:35 50.45816 -3.83467 2495 ft 109 kts 71°
2026-05-05 18:35 50.45978 -3.82313 2498 ft 109 kts 71°
2026-05-05 18:36 50.46144 -3.81134 2496 ft 110 kts 71°
2026-05-05 18:36 50.46310 -3.79958 2504 ft 110 kts 71°
2026-05-05 18:36 50.46475 -3.78789 2503 ft 111 kts 71°
2026-05-05 18:36 50.46643 -3.77599 2504 ft 111 kts 71°
2026-05-05 18:37 50.46810 -3.76426 2496 ft 111 kts 71°
2026-05-05 18:37 50.46977 -3.75241 2503 ft 110 kts 71°
2026-05-05 18:37 50.46990 -3.75152 2503 ft 110 kts 71°
2026-05-05 18:38 50.47183 -3.74096 2503 ft 105 kts 72°
2026-05-05 18:38 50.47416 -3.73038 2501 ft 102 kts 71°
2026-05-05 18:38 50.47649 -3.71989 2501 ft 100 kts 71°
2026-05-05 18:38 50.47877 -3.70969 2502 ft 99 kts 71°
2026-05-05 18:39 50.48110 -3.69942 2503 ft 99 kts 69°
2026-05-05 18:39 50.48387 -3.68953 2502 ft 99 kts 66°
2026-05-05 18:39 50.48676 -3.67963 2502 ft 99 kts 66°
2026-05-05 18:39 50.48962 -3.66985 2502 ft 99 kts 66°
2026-05-05 18:40 50.49246 -3.66014 2503 ft 99 kts 66°
2026-05-05 18:40 50.49536 -3.65021 2502 ft 99 kts 66°
2026-05-05 18:40 50.49822 -3.64044 2503 ft 99 kts 66°
2026-05-05 18:40 50.50108 -3.63067 2502 ft 99 kts 66°
2026-05-05 18:41 50.50381 -3.62074 2503 ft 99 kts 68°
2026-05-05 18:41 50.50645 -3.61080 2504 ft 99 kts 68°
2026-05-05 18:41 50.50909 -3.60081 2504 ft 99 kts 68°
2026-05-05 18:41 50.51172 -3.59086 2504 ft 99 kts 68°
2026-05-05 18:42 50.51438 -3.58081 2502 ft 99 kts 68°
2026-05-05 18:42 50.51699 -3.57091 2502 ft 98 kts 68°
2026-05-05 18:42 50.51962 -3.56096 2503 ft 98 kts 68°
2026-05-05 18:42 50.52222 -3.55112 2502 ft 98 kts 68°
2026-05-05 18:43 50.52487 -3.54110 2505 ft 98 kts 68°
2026-05-05 18:43 50.52757 -3.53118 2504 ft 99 kts 64°
2026-05-05 18:43 50.53112 -3.52200 2503 ft 99 kts 58°
2026-05-05 18:43 50.53489 -3.51285 2503 ft 99 kts 58°
2026-05-05 18:44 50.53863 -3.50384 2503 ft 99 kts 58°
2026-05-05 18:44 50.54240 -3.49474 2504 ft 99 kts 58°
2026-05-05 18:44 50.54615 -3.48570 2504 ft 99 kts 58°
2026-05-05 18:44 50.55001 -3.47650 2504 ft 99 kts 55°
2026-05-05 18:45 50.55427 -3.46803 2504 ft 100 kts 52°
2026-05-05 18:45 50.55870 -3.45953 2504 ft 100 kts 52°
2026-05-05 18:45 50.56309 -3.45111 2504 ft 100 kts 52°
2026-05-05 18:45 50.56746 -3.44274 2503 ft 100 kts 52°
2026-05-05 18:46 50.57191 -3.43422 2503 ft 100 kts 52°
2026-05-05 18:46 50.57624 -3.42591 2503 ft 100 kts 52°
2026-05-05 18:46 50.58069 -3.41739 2503 ft 100 kts 52°
2026-05-05 18:46 50.58508 -3.40898 2503 ft 100 kts 52°
2026-05-05 18:47 50.58947 -3.40056 2503 ft 100 kts 52°
2026-05-05 18:47 50.59386 -3.39215 2503 ft 100 kts 52°
2026-05-05 18:47 50.59830 -3.38364 2503 ft 100 kts 52°
2026-05-05 18:47 50.60272 -3.37517 2503 ft 100 kts 52°
2026-05-05 18:48 50.60710 -3.36676 2503 ft 100 kts 51°
2026-05-05 18:48 50.61152 -3.35829 2503 ft 100 kts 51°
2026-05-05 18:48 50.61589 -3.34990 2503 ft 100 kts 52°
2026-05-05 18:48 50.62032 -3.34142 2504 ft 100 kts 52°
2026-05-05 18:49 50.62441 -3.33263 2503 ft 100 kts 57°
2026-05-05 18:49 50.62831 -3.32361 2503 ft 100 kts 57°
2026-05-05 18:49 50.63222 -3.31451 2503 ft 100 kts 57°
2026-05-05 18:49 50.63612 -3.30545 2502 ft 100 kts 57°
2026-05-05 18:50 50.63998 -3.29649 2502 ft 99 kts 57°
2026-05-05 18:50 50.64390 -3.28737 2504 ft 99 kts 57°
2026-05-05 18:50 50.64775 -3.27840 2502 ft 100 kts 57°
2026-05-05 18:50 50.65166 -3.26932 2502 ft 100 kts 57°
2026-05-05 18:51 50.65551 -3.26036 2501 ft 99 kts 57°
2026-05-05 18:51 50.65945 -3.25120 2501 ft 99 kts 57°
2026-05-05 18:51 50.66333 -3.24219 2501 ft 99 kts 57°
2026-05-05 18:51 50.66718 -3.23322 2501 ft 99 kts 57°
2026-05-05 18:52 50.67108 -3.22413 2501 ft 99 kts 57°
2026-05-05 18:52 50.67421 -3.21447 2500 ft 99 kts 68°
2026-05-05 18:52 50.67653 -3.20425 2501 ft 98 kts 72°
2026-05-05 18:52 50.67868 -3.19408 2501 ft 98 kts 72°
2026-05-05 18:53 50.68083 -3.18386 2501 ft 99 kts 72°
2026-05-05 18:53 50.68301 -3.17349 2501 ft 99 kts 72°
2026-05-05 18:53 50.68515 -3.16327 2502 ft 99 kts 72°
2026-05-05 18:53 50.68704 -3.15288 2501 ft 99 kts 77°
2026-05-05 18:54 50.68851 -3.14224 2503 ft 99 kts 78°
2026-05-05 18:54 50.68993 -3.13169 2501 ft 99 kts 78°
2026-05-05 18:54 50.69134 -3.12119 2499 ft 98 kts 78°
2026-05-05 18:54 50.69276 -3.11057 2500 ft 98 kts 78°
2026-05-05 18:55 50.69419 -3.09995 2502 ft 98 kts 78°
2026-05-05 18:55 50.69561 -3.08937 2503 ft 99 kts 78°
2026-05-05 18:55 50.69702 -3.07889 2502 ft 99 kts 78°
2026-05-05 18:55 50.69844 -3.06830 2501 ft 99 kts 78°
2026-05-05 18:56 50.69987 -3.05763 2500 ft 98 kts 78°
2026-05-05 18:56 50.70129 -3.04708 2500 ft 98 kts 78°
2026-05-05 18:56 50.70270 -3.03661 2501 ft 98 kts 78°
2026-05-05 18:56 50.70413 -3.02595 2501 ft 98 kts 78°
2026-05-05 18:57 50.70554 -3.01547 2501 ft 98 kts 78°
2026-05-05 18:57 50.70697 -3.00486 2501 ft 98 kts 78°
2026-05-05 18:57 50.70839 -2.99423 2504 ft 98 kts 78°
2026-05-05 18:57 50.70964 -2.98363 2503 ft 99 kts 82°
2026-05-05 18:58 50.71048 -2.97293 2503 ft 99 kts 83°
2026-05-05 18:58 50.71128 -2.96214 2502 ft 99 kts 83°
2026-05-05 18:58 50.71207 -2.95144 2502 ft 99 kts 83°
2026-05-05 18:58 50.71286 -2.94068 2501 ft 98 kts 83°
2026-05-05 18:59 50.71366 -2.92995 2501 ft 98 kts 83°
2026-05-05 18:59 50.71446 -2.91916 2501 ft 98 kts 83°
2026-05-05 18:59 50.71524 -2.90848 2501 ft 98 kts 83°
2026-05-05 18:59 50.71604 -2.89773 2502 ft 98 kts 83°
2026-05-05 19:00 50.71641 -2.88703 2496 ft 98 kts 97°
2026-05-05 19:00 50.71479 -2.87660 2501 ft 98 kts 104°
2026-05-05 19:00 50.71288 -2.86631 2502 ft 98 kts 105°
2026-05-05 19:00 50.71095 -2.85603 2502 ft 98 kts 105°
2026-05-05 19:01 50.70900 -2.84567 2502 ft 98 kts 105°
2026-05-05 19:01 50.70706 -2.83538 2502 ft 98 kts 105°
2026-05-05 19:01 50.70512 -2.82508 2503 ft 98 kts 105°
2026-05-05 19:01 50.70317 -2.81475 2503 ft 98 kts 105°
2026-05-05 19:02 50.70120 -2.80433 2503 ft 98 kts 105°
2026-05-05 19:02 50.69928 -2.79410 2503 ft 98 kts 105°
2026-05-05 19:02 50.69732 -2.78370 2503 ft 98 kts 105°
2026-05-05 19:02 50.69539 -2.77346 2503 ft 98 kts 105°
2026-05-05 19:03 50.69289 -2.76348 2503 ft 98 kts 112°
2026-05-05 19:03 50.69003 -2.75373 2503 ft 98 kts 113°
2026-05-05 19:03 50.68711 -2.74386 2503 ft 98 kts 113°
2026-05-05 19:03 50.68424 -2.73418 2503 ft 98 kts 113°
2026-05-05 19:04 50.68132 -2.72433 2453 ft 103 kts 113°
2026-05-05 19:04 50.67826 -2.71404 2327 ft 102 kts 114°
2026-05-05 19:04 50.67528 -2.70400 2198 ft 100 kts 114°
2026-05-05 19:04 50.67233 -2.69405 2070 ft 99 kts 114°
2026-05-05 19:05 50.66940 -2.68420 1942 ft 99 kts 114°
2026-05-05 19:05 50.66652 -2.67454 1817 ft 98 kts 113°
2026-05-05 19:05 50.66363 -2.66481 1690 ft 98 kts 113°
2026-05-05 19:05 50.66073 -2.65506 1563 ft 98 kts 113°
2026-05-05 19:06 50.65786 -2.64541 1481 ft 95 kts 113°
2026-05-05 19:06 50.65509 -2.63605 1497 ft 95 kts 113°
2026-05-05 19:06 50.65228 -2.62661 1499 ft 96 kts 113°
2026-05-05 19:06 50.64942 -2.61698 1499 ft 96 kts 113°
2026-05-05 19:07 50.64660 -2.60750 1499 ft 97 kts 113°
2026-05-05 19:07 50.64348 -2.59797 1493 ft 97 kts 124°
2026-05-05 19:07 50.63882 -2.59042 1497 ft 98 kts 135°
2026-05-05 19:07 50.63347 -2.58367 1498 ft 98 kts 139°
2026-05-05 19:08 50.62809 -2.57712 1498 ft 98 kts 139°
2026-05-05 19:08 50.62263 -2.57049 1498 ft 98 kts 139°
2026-05-05 19:08 50.61718 -2.56390 1498 ft 98 kts 139°
2026-05-05 19:08 50.61180 -2.55738 1498 ft 98 kts 139°
2026-05-05 19:09 50.60636 -2.55078 1499 ft 98 kts 139°
2026-05-05 19:09 50.60091 -2.54418 1499 ft 98 kts 139°
2026-05-05 19:09 50.59554 -2.53767 1499 ft 98 kts 139°
2026-05-05 19:09 50.59013 -2.53111 1499 ft 98 kts 139°
2026-05-05 19:10 50.58470 -2.52455 1499 ft 98 kts 139°
2026-05-05 19:10 50.57926 -2.51796 1499 ft 98 kts 139°
2026-05-05 19:10 50.57387 -2.51143 1499 ft 98 kts 139°
2026-05-05 19:10 50.56840 -2.50481 1499 ft 98 kts 139°
2026-05-05 19:11 50.56297 -2.49824 1499 ft 98 kts 139°
2026-05-05 19:11 50.55759 -2.49167 1499 ft 98 kts 136°
2026-05-05 19:11 50.55488 -2.48241 1503 ft 96 kts 89°
2026-05-05 19:11 50.55632 -2.47207 1502 ft 97 kts 72°
2026-05-05 19:12 50.55848 -2.46204 1500 ft 97 kts 71°
2026-05-05 19:12 50.56071 -2.45203 1499 ft 97 kts 71°
2026-05-05 19:12 50.56296 -2.44197 1493 ft 97 kts 70°
2026-05-05 19:12 50.56560 -2.43228 1498 ft 96 kts 66°
2026-05-05 19:13 50.56841 -2.42258 1500 ft 97 kts 66°
2026-05-05 19:13 50.57123 -2.41289 1499 ft 97 kts 66°
2026-05-05 19:13 50.57404 -2.40325 1499 ft 97 kts 66°
2026-05-05 19:13 50.57686 -2.39355 1499 ft 97 kts 66°
2026-05-05 19:14 50.57972 -2.38375 1499 ft 97 kts 66°
2026-05-05 19:14 50.58254 -2.37404 1499 ft 97 kts 66°
2026-05-05 19:14 50.58537 -2.36435 1499 ft 97 kts 66°
2026-05-05 19:14 50.58819 -2.35465 1499 ft 97 kts 66°
2026-05-05 19:15 50.59101 -2.34495 1499 ft 97 kts 66°
2026-05-05 19:15 50.59383 -2.33524 1499 ft 98 kts 66°
2026-05-05 19:15 50.59667 -2.32548 1499 ft 98 kts 66°
2026-05-05 19:15 50.59950 -2.31574 1499 ft 98 kts 66°
2026-05-05 19:16 50.60229 -2.30614 1499 ft 98 kts 66°
2026-05-05 19:16 50.60515 -2.29630 1499 ft 98 kts 66°
2026-05-05 19:16 50.60796 -2.28662 1499 ft 98 kts 66°
2026-05-05 19:16 50.61077 -2.27694 1499 ft 98 kts 66°
2026-05-05 19:17 50.61360 -2.26720 1499 ft 98 kts 66°
2026-05-05 19:17 50.61644 -2.25745 1499 ft 98 kts 66°
2026-05-05 19:17 50.61927 -2.24770 1499 ft 98 kts 66°
2026-05-05 19:17 50.62211 -2.23791 1500 ft 98 kts 66°
2026-05-05 19:18 50.62492 -2.22823 1498 ft 97 kts 66°
2026-05-05 19:18 50.62772 -2.21859 1501 ft 98 kts 66°
2026-05-05 19:18 50.63060 -2.20870 1502 ft 98 kts 66°
2026-05-05 19:18 50.63343 -2.19895 1499 ft 98 kts 66°
2026-05-05 19:19 50.63625 -2.18922 1499 ft 98 kts 66°
2026-05-05 19:19 50.63906 -2.17956 1500 ft 98 kts 66°
2026-05-05 19:19 50.64189 -2.16982 1498 ft 98 kts 66°
2026-05-05 19:19 50.64500 -2.16022 1500 ft 98 kts 63°
2026-05-05 19:20 50.64823 -2.15091 1500 ft 98 kts 62°
2026-05-05 19:20 50.65155 -2.14139 1499 ft 98 kts 62°
2026-05-05 19:20 50.65479 -2.13210 1499 ft 98 kts 62°
2026-05-05 19:20 50.65810 -2.12264 1500 ft 98 kts 62°
2026-05-05 19:21 50.66139 -2.11320 1499 ft 98 kts 62°
2026-05-05 19:21 50.66449 -2.10376 1498 ft 98 kts 65°
2026-05-05 19:21 50.66745 -2.09413 1500 ft 97 kts 65°
2026-05-05 19:21 50.67037 -2.08451 1499 ft 98 kts 66°
2026-05-05 19:22 50.67292 -2.07454 1499 ft 97 kts 71°
2026-05-05 19:22 50.67481 -2.06425 1499 ft 97 kts 77°
2026-05-05 19:22 50.67601 -2.05386 1499 ft 97 kts 82°
2026-05-05 19:22 50.67693 -2.04329 1499 ft 97 kts 82°
2026-05-05 19:23 50.67783 -2.03269 1500 ft 97 kts 82°
2026-05-05 19:23 50.67872 -2.02214 1500 ft 97 kts 82°
2026-05-05 19:23 50.67962 -2.01158 1500 ft 97 kts 82°
2026-05-05 19:23 50.68050 -2.00117 1500 ft 97 kts 82°
2026-05-05 19:24 50.68140 -1.99059 1500 ft 97 kts 82°
2026-05-05 19:24 50.68230 -1.97994 1500 ft 97 kts 82°
2026-05-05 19:24 50.68319 -1.96942 1500 ft 97 kts 82°
2026-05-05 19:24 50.68410 -1.95890 1500 ft 97 kts 81°
2026-05-05 19:25 50.68763 -1.95004 1505 ft 98 kts 43°
2026-05-05 19:25 50.69314 -1.94340 1501 ft 99 kts 38°
2026-05-05 19:25 50.69861 -1.93684 1499 ft 99 kts 42°
2026-05-05 19:25 50.70390 -1.92976 1498 ft 99 kts 42°
2026-05-05 19:26 50.70912 -1.92273 1499 ft 99 kts 42°
2026-05-05 19:26 50.71439 -1.91563 1501 ft 99 kts 42°
2026-05-05 19:26 50.71994 -1.90892 1489 ft 101 kts 30°
2026-05-05 19:26 50.72680 -1.90659 1504 ft 102 kts
2026-05-05 19:27 50.73398 -1.90679 1512 ft 103 kts
2026-05-05 19:27 50.74120 -1.90700 1495 ft 102 kts
2026-05-05 19:27 50.74829 -1.90809 1359 ft 105 kts 355°
2026-05-05 19:27 50.75563 -1.91005 1208 ft 105 kts 352°
2026-05-05 19:28 50.76276 -1.91154 1111 ft 100 kts
2026-05-05 19:28 50.76821 -1.90685 1061 ft 87 kts 54°
2026-05-05 19:28 50.77081 -1.89840 919 ft 83 kts 75°
2026-05-05 19:28 50.77217 -1.88980 767 ft 81 kts 75°
2026-05-05 19:29 50.77364 -1.88136 644 ft 78 kts 75°
2026-05-05 19:29 50.77504 -1.87299 496 ft 79 kts 77°
2026-05-05 19:29 50.77636 -1.86497 356 ft 72 kts 76°
2026-05-05 19:29 50.77761 -1.85741 176 ft 72 kts 76°
2026-05-05 19:30 50.77884 -1.85004 56 ft 65 kts 76°
2026-05-05 19:30 50.77980 -1.84413 38 ft 43 kts 75°
2026-05-05 19:30 50.78037 -1.84061 38 ft 23 kts 78°
2026-05-05 19:30 50.78100 -1.83922 38 ft 12 kts 360°
2026-05-05 19:31 50.78173 -1.83948 38 ft 9 kts 343°
2026-05-05 19:31 50.78230 -1.83972 38 ft 7 kts 347°
2026-05-05 19:31 50.78282 -1.83993 38 ft 10 kts 340°
2026-05-05 19:31 50.78383 -1.84037 38 ft 19 kts 346°
2026-05-05 19:32 50.78535 -1.84096 38 ft 24 kts 342°
2026-05-05 19:32 50.78708 -1.84169 38 ft 25 kts 344°
2026-05-05 19:32 50.78828 -1.84275 38 ft 17 kts 262°
2026-05-05 19:32 50.78793 -1.84411 38 ft 10 kts 257°
2026-05-05 19:33 50.78778 -1.84528 37 ft 12 kts 260°
2026-05-05 19:33 50.78774 -1.84665 38 ft 11 kts 255°
2026-05-05 19:33 50.78755 -1.84664 38 ft 0 kts 132°